Weather History for Venice, Italy

Change the Weather History Date:

Friday, November 8, 2013

  Actual Average Record
Temperature  
Mean Temperature 56 °F -  
Max Temperature 60 °F 51 °F 64 °F (2005)
Min Temperature 53 °F 38 °F 35 °F (2002)
Degree Days  
Heating Degree Days 8    
Growing Degree Days 6 (Base 50)    
Moisture  
Dew Point 52 °F    
Average Humidity 83    
Maximum Humidity 94    
Minimum Humidity 68    
Precipitation  
Precipitation 0.00 in 0.10 in - ()
Sea Level Pressure  
Sea Level Pressure 30.03 in    
Wind  
Wind Speed 2 mph ()    
Max Wind Speed 7 mph    
Max Gust Speed -    
Visibility 4.3 miles    
Events Rain    
Averages and records for this station are not official NWS values.
T = Trace of Precipitation, MM = Missing Value Source: Averaged Metar Reports

Daily Weather History Graph

Daily Weather History Graph

Search for Another Location

Airport:

Trip Planner

Search our weather history database for the weather conditions in past years. The results will help you decide how hot, cold, wet, or windy it might be!

Date:

Astronomy

Nov. 08, 2013 Rise Set
Actual Time 6:59 AM CET 4:48 PM CET
Civil Twilight 6:28 AM CET 5:19 PM CET
Nautical Twilight 5:52 AM CET 5:55 PM CET
Astronomical Twilight 5:18 AM CET 6:29 PM CET
Moon 11:43 AM CET (11/8) 9:49 PM CET (11/8)
Length of Visible Light 10h 51m
Length of Day
9h 48m
Waxing Crescent, 30% of the Moon is Illuminated
Nov 8
Waxing Crescent
Nov 10
First Quarter
Nov 17
Full
Nov 25
Last Quarter
Dec 3
New

Hourly Weather History & Observations

Time (CET) Temp. Dew Point Humidity Pressure Visibility Wind Dir Wind Speed Gust Speed Precip Events Conditions
12:20 AM 55.4 °F 51.8 °F 88% 30.06 in 4.3 mi Variable 2.3 mph - N/A   Mostly Cloudy
12:50 AM 55.4 °F 51.8 °F 88% 30.04 in 4.3 mi Variable 2.3 mph - N/A   Mostly Cloudy
1:20 AM 55.4 °F 51.8 °F 88% 30.04 in 4.3 mi Variable 2.3 mph - N/A   Mostly Cloudy
1:50 AM 55.4 °F 50.0 °F 82% 30.04 in 4.3 mi Variable 2.3 mph - N/A   Mostly Cloudy
2:20 AM 55.4 °F 50.0 °F 82% 30.04 in 4.3 mi Variable 3.5 mph - N/A   Mostly Cloudy
2:50 AM 55.4 °F 50.0 °F 82% 30.04 in 4.3 mi Variable 1.2 mph - N/A   Mostly Cloudy
3:20 AM 55.4 °F 50.0 °F 82% 30.04 in 4.3 mi Variable 1.2 mph - N/A   Mostly Cloudy
3:50 AM 55.4 °F 50.0 °F 82% 30.04 in 4.3 mi Variable 2.3 mph - N/A   Mostly Cloudy
4:20 AM 55.4 °F 50.0 °F 82% 30.04 in 4.3 mi Variable 1.2 mph - N/A   Mostly Cloudy
4:50 AM 55.4 °F 50.0 °F 82% 30.04 in 4.3 mi Calm Calm - N/A   Mostly Cloudy
5:20 AM 55.4 °F 53.6 °F 94% 30.04 in 3.7 mi Calm Calm - N/A   Mostly Cloudy
5:50 AM 55.4 °F 51.8 °F 88% 30.04 in 3.7 mi Variable 1.2 mph - N/A   Mostly Cloudy
6:20 AM 55.4 °F 51.8 °F 88% 30.01 in 3.7 mi Variable 1.2 mph - N/A   Mostly Cloudy
6:50 AM 53.6 °F 50.0 °F 88% 30.01 in 3.1 mi Calm Calm - N/A   Mostly Cloudy
7:20 AM 53.6 °F 50.0 °F 88% 30.04 in 3.7 mi Variable 1.2 mph - N/A   Mostly Cloudy
7:50 AM 55.4 °F 51.8 °F 88% 30.04 in 4.3 mi Calm Calm - N/A   Mostly Cloudy
8:20 AM 55.4 °F 51.8 °F 88% 30.04 in 4.3 mi Calm Calm - N/A   Mostly Cloudy
8:50 AM 55.4 °F 51.8 °F 88% 30.04 in 5.0 mi Calm Calm - N/A   Mostly Cloudy
9:50 AM 57.2 °F 51.8 °F 82% 30.06 in 5.0 mi Calm Calm - N/A   Mostly Cloudy
10:20 AM 57.2 °F 51.8 °F 82% 30.04 in 5.0 mi Calm Calm - N/A   Mostly Cloudy
10:50 AM 59.0 °F 51.8 °F 77% 30.06 in 5.0 mi Calm Calm - N/A   Mostly Cloudy
11:20 AM 59.0 °F 51.8 °F 77% 30.06 in 5.0 mi Calm Calm - N/A   Mostly Cloudy
11:50 AM 60.8 °F 51.8 °F 72% 30.04 in 5.0 mi Variable 1.2 mph - N/A   Mostly Cloudy
12:20 PM 60.8 °F 50.0 °F 68% 30.04 in 5.6 mi Variable 1.2 mph - N/A   Mostly Cloudy
12:50 PM 60.8 °F 50.0 °F 68% 30.04 in 5.6 mi Calm Calm - N/A   Mostly Cloudy
1:20 PM 60.8 °F 51.8 °F 72% 30.04 in 5.6 mi Calm Calm - N/A   Unknown
1:50 PM 59.0 °F 51.8 °F 77% 30.04 in 5.6 mi Calm Calm - N/A   Unknown
2:20 PM 60.8 °F 51.8 °F 72% 30.04 in 5.6 mi Variable 1.2 mph - N/A   Unknown
2:50 PM 59.0 °F 51.8 °F 77% 30.04 in 5.6 mi Variable 1.2 mph - N/A   Scattered Clouds
3:20 PM 60.8 °F 51.8 °F 72% 30.04 in 5.6 mi Calm Calm - N/A   Mostly Cloudy
3:50 PM 60.8 °F 53.6 °F 77% 30.01 in 5.6 mi Calm Calm - N/A   Mostly Cloudy
4:20 PM 60.8 °F 53.6 °F 77% 30.04 in 5.6 mi Variable 2.3 mph - N/A   Mostly Cloudy
4:50 PM 59.0 °F 53.6 °F 82% 30.01 in 5.0 mi Variable 3.5 mph - N/A   Scattered Clouds
5:20 PM 60.8 °F 53.6 °F 77% 30.04 in 4.3 mi Variable 1.2 mph - N/A   Mostly Cloudy
5:50 PM 59.0 °F 51.8 °F 77% 30.04 in 6.2 mi Calm Calm - N/A   Mostly Cloudy
6:20 PM 59.0 °F 51.8 °F 77% 30.04 in 3.1 mi Variable 1.2 mph - N/A Rain Light Rain
6:50 PM 59.0 °F 53.6 °F 82% 30.04 in 5.6 mi Variable 1.2 mph - N/A   Mostly Cloudy
7:20 PM 59.0 °F 53.6 °F 82% 30.01 in 5.6 mi Variable 3.5 mph - N/A   Mostly Cloudy
7:50 PM 59.0 °F 55.4 °F 88% 30.01 in 4.3 mi NNE 4.6 mph - N/A   Mostly Cloudy
8:20 PM 59.0 °F 55.4 °F 88% 30.01 in 4.3 mi Variable 3.5 mph - N/A   Mostly Cloudy
8:50 PM 57.2 °F 55.4 °F 94% 30.01 in 3.1 mi North 5.8 mph - N/A   Mostly Cloudy
9:20 PM 57.2 °F 55.4 °F 94% 30.01 in 2.5 mi North 4.6 mph - N/A   Mostly Cloudy
9:50 PM 57.2 °F 55.4 °F 94% 29.98 in 2.2 mi NNE 5.8 mph - N/A   Mostly Cloudy
10:20 PM 57.2 °F 55.4 °F 94% 29.98 in 1.9 mi NNE 4.6 mph - N/A   Mostly Cloudy
10:50 PM 57.2 °F 55.4 °F 94% 29.98 in 1.6 mi NNE 4.6 mph - N/A   Mostly Cloudy
11:20 PM 57.2 °F 55.4 °F 94% 29.95 in 1.6 mi NNE 5.8 mph - N/A   Mostly Cloudy
11:50 PM 57.2 °F 55.4 °F 94% 29.95 in 1.6 mi NNE 6.9 mph - N/A   Mostly Cloudy